sat.trackr.live / text

‹ back to catalog

STARLINK-33786

NORAD 63514 · 2025-071X

PAYLOAD ACTIVE UNKNOWN

§ Identity

Operator
Country
US
Launch date
2025-04-07
Launch site
AFWTR
Launch vehicle
Mass (kg)
RCS (m²)

Purposes: comms

External: N2YO · Heavens-Above · Gunter

§ Orbital elements

Epoch: 2026-05-25T03:49:20.902080Z

Period
94.10 min
Inclination
53.1561°
Eccentricity
0.0001124
Mean motion
15.30209443 rev/d
Perigee alt
474.4 km
Apogee alt
476.0 km
Semi-major
6,853.3 km
B*
5.9624e-4
RAAN
144.9778°
Arg perigee
97.5682°
Mean anomaly
262.5446°
Rev number
6,409

§ Raw data

STARLINK-337861 63514U 25071X   26145.15926970  .00017346  00000+0  59624-3 0  99902 63514  53.1561 144.9778 0001124  97.5682 262.5446 15.30209443 64096

JSON: /api/v1/satellites/63514 · /tle

For live sub-satellite position, see the globe view (requires WebGL).

§ Visibility from observer

Set your observer location to see the next 7 days of passes ≥ 10°. The values pass through the URL so the page stays shareable.

No JS? Fill the form by hand. The geolocation button needs JavaScript.